Location: Moscow
(55.7500°N, 37.5830°E)
Time: 11:48:56
(UTC+03:00)

Vanguard 3 - Pass Details

Date: 02 December 2021
Orbit: 508 x 3260 km, 33.3° (Epoch: 19 January)

Event Time Altitude Azimuth Distance (km) Brightness Sun altitude
Rises 03:20:10 0° 200° (SSW) 7,125 - -42.6°
Reaches altitude 10° 03:27:05 10° 186° (S) 6,193 - -41.7°
Exits shadow 03:27:35 11° 185° (S) 6,132 11.3 -41.6°
Maximum altitude 03:38:43 20° 150° (SSE) 5,197 11.2 -40.2°
Drops below altitude 10° 03:48:59 10° 112° (ESE) 5,431 11.8 -38.8°
Sets 03:54:20 0° 97° (E) 6,021 12.4 -38.1°
